Stations météo

Publicité
Bordeaux/Merignac, France (7510): Température de l'air & dewpoint: 11.12.2017 22:00:00 - 17.12.2017 22:00:00 (CET)Bordeaux/Merignac, France (7510): Température de l'air 5cm: 11.12.2017 22:00:00 - 17.12.2017 22:00:00 (CET)Bordeaux/Merignac, France (7510): Température de l'air -20cm & Température de l'air -100cm: 11.12.2017 22:00:00 - 17.12.2017 22:00:00 (CET)Bordeaux/Merignac, France (7510): Vitesse du vent & gusts: 11.12.2017 22:00:00 - 17.12.2017 22:00:00 (CET)Bordeaux/Merignac, France (7510): Direction du vent: 11.12.2017 22:00:00 - 17.12.2017 22:00:00 (CET)Bordeaux/Merignac, France (7510): reduced air pressure: 11.12.2017 22:00:00 - 17.12.2017 22:00:00 (CET)Bordeaux/Merignac, France (7510): visibility: 11.12.2017 22:00:00 - 17.12.2017 22:00:00 (CET)Bordeaux/Merignac, France (7510): Ensoleillement: 11.12.2017 22:00:00 - 17.12.2017 22:00:00 (CET)Bordeaux/Merignac, France (7510): Quantités de précipitations: 11.12.2017 22:00:00 - 17.12.2017 22:00:00 (CET)
Date & Time tt [°C] td [°C] tt 5cm [°C] tt -20cm [°C] tt -100cm [°C] ff [km/h] ff [knt] fx [km/h] fx [knt] dd ppp [hPa] vv [km] sd [min] rr [mm]
17.12.2017 22:00:00 7,2 6,6 6,4 7,5 10,1 3 1 14 8 SW 1032,6 15 0 0,0
17.12.2017 21:00:00 6,9 6,6 4,8 7,6 10,1 6 3 8 5 WSW 1032,8 11 0 0,0
17.12.2017 20:00:00 6,2 5,8 2,7 7,6 10,1 4 2 10 5 SW 1032,3 6 0 0,0
17.12.2017 19:00:00 7,6 6,5 5,2 7,7 10,1 10 5 15 8 W 1032,0 36 0 0,0
17.12.2017 18:00:00 8,6 7,2 7,2 7,7 10,1 10 6 14 8 W 1031,4 58 0 0,0
17.12.2017 17:00:00 9,7 7,5 9,4 7,6 10,2 9 5 14 8 W 1031,1 50 1 0,0
17.12.2017 16:00:00 9,7 7,6 9,9 7,3 10,2 10 6 19 10 W 1030,5 60 6 0,0
17.12.2017 15:00:00 10,1 6,8 10,1 7,0 10,2 15 8 23 12 WNW 1030,3 10 5 0,0
17.12.2017 14:00:00 10,1 6,4 10,8 6,7 10,2 13 7 21 12 WNW 1030,2 59 7 0,0
17.12.2017 13:00:00 8,2 5,8 8,8 6,5 10,2 11 6 19 10 WNW 1030,7 33 3 0,0
17.12.2017 12:00:00 7,4 5,5 6,7 6,3 10,3 9 5 18 10 NW 1031,2 30 0 0,0
17.12.2017 11:00:00 5,6 4,1 4,4 6,1 10,3 11 6 19 10 WSW 1031,1 24 0 0,0
17.12.2017 10:00:00 4,2 3,0 3,3 6,1 10,3 8 5 17 9 WSW 1030,8 24 0 0,0
17.12.2017 09:00:00 3,7 2,7 2,1 6,1 10,3 14 8 20 11 SW 1030,1 20 0 0,0
17.12.2017 08:00:00 2,5 1,8 0,6 6,1 10,3 6 4 11 6 SW 1030,0 17 0 0,0
17.12.2017 07:00:00 2,5 1,8 0,7 6,1 10,3 9 5 14 7 SW 1029,8 16 0 0,0
17.12.2017 06:00:00 1,9 1,5 0,4 6,1 10,4 6 4 10 5 SW 1029,8 11 0 0,0
17.12.2017 05:00:00 1,3 1,0 -0,3 6,2 10,4 6 4 9 5 SW 1029,8 15 0 0,0
17.12.2017 04:00:00 0,7 0,4 -1,6 6,3 10,4 0 0 8 4 N 1029,9 8 0 0,0
17.12.2017 03:00:00 0,3 -0,1 -2,0 6,4 10,4 7 4 10 6 SW 1029,4 11 0 0,0
17.12.2017 02:00:00 0,6 0,2 -2,4 6,6 10,4 9 5 11 6 WSW 1029,3 10 0 0,0
17.12.2017 01:00:00 0,0 -0,4 -2,4 6,7 10,4 3 2 10 5 WSW 1029,3 11 0 0,0
17.12.2017 00:00:00 0,8 0,4 -1,7 6,8 10,4 7 4 8 5 WSW 1029,2 19 0 0,0
16.12.2017 23:00:00 1,2 0,6 -1,2 7,0 10,4 3 1 9 5 SSW 1028,6 19 0 0,0
16.12.2017 22:00:00 1,7 1,0 -1,2 7,2 10,4 8 4 10 5 WSW 1028,5 7 0 0,0
16.12.2017 21:00:00 1,9 1,2 -1,3 7,4 10,5 7 4 9 5 W 1027,9 6 0 0,0
16.12.2017 20:00:00 2,4 0,9 -0,7 7,6 10,5 5 3 11 6 W 1027,2 9 0 0,0
16.12.2017 19:00:00 3,9 1,3 1,3 7,7 10,5 6 4 11 6 NW 1026,1 32 0 0,0
16.12.2017 18:00:00 5,3 1,6 2,6 7,8 10,5 7 4 20 11 NW 1025,4 38 1 0,0
16.12.2017 17:00:00 7,4 2,5 8,4 7,8 10,5 8 4 27 15 NNW 1024,6 58 58 0,0
16.12.2017 16:00:00 8,3 2,5 7,2 7,7 10,5 16 9 24 13 N 1023,8 48 50 0,0
16.12.2017 15:00:00 7,5 2,8 7,5 7,5 10,6 11 6 21 12 NNE 1023,2 55 14 0,0
16.12.2017 14:00:00 8,7 4,1 9,9 7,1 10,6 11 6 21 11 NNW 1022,9 55 29 0,0
16.12.2017 13:00:00 8,5 4,1 7,7 6,8 10,6 13 7 20 11 N 1022,7 10 60 0,0
16.12.2017 12:00:00 7,4 4,4 7,8 6,6 10,6 11 6 18 10 N 1022,4 40 60 0,0
16.12.2017 11:00:00 5,9 4,5 4,7 6,5 10,6 5 3 7 4 W 1021,7 20 60 0,0
16.12.2017 10:00:00 2,9 2,9 -1,5 6,6 10,6 4 2 7 4 W 1020,9 14 57 0,0
16.12.2017 09:00:00 -0,4 -0,5 -2,9 6,8 10,6 2 1 6 3 W 1020,1 0,6 4 0,0
16.12.2017 08:00:00 -0,3 -0,6 -2,9 7,0 10,6 0 0 6 4 N 1019,2 4,1 0 0,0
16.12.2017 07:00:00 0,3 0,2 -2,8 7,1 10,6 4 2 9 5 W 1018,5 6 0 0,0
16.12.2017 06:00:00 0,3 0,0 -2,7 7,3 10,6 8 4 10 5 W 1017,7 10 0 0,0
16.12.2017 05:00:00 0,6 0,3 -2,1 7,5 10,6 8 4 11 6 W 1017,2 15 0 0,0
16.12.2017 04:00:00 0,6 0,2 -1,9 7,7 10,6 5 3 8 4 W 1016,4 2,6 0 0,0
16.12.2017 03:00:00 1,4 0,8 -1,4 7,8 10,6 5 3 8 5 WSW 1015,4 4,3 0 0,0
16.12.2017 02:00:00 2,3 1,6 -0,2 8,0 10,6 5 3 8 5 W 1014,5 9 0 0,0
16.12.2017 01:00:00 3,0 1,7 0,4 8,2 10,6 5 3 11 6 WNW 1014,2 10 0 0,0
16.12.2017 00:00:00 4,4 2,3 1,9 8,4 10,6 7 4 17 9 WNW 1013,5 27 0 0,0
15.12.2017 23:00:00 4,8 3,3 2,9 8,5 10,6 9 5 16 9 NW 1012,7 26 0 0,0
15.12.2017 22:00:00 5,0 4,0 3,0 8,7 10,6 8 4 13 7 NW 1011,9 28 0 0,0
15.12.2017 21:00:00 5,7 4,3 3,6 8,9 10,6 9 5 18 10 WNW 1011,1 20 0 0,0
15.12.2017 20:00:00 5,9 4,2 3,8 9,0 10,6 9 5 28 15 W 1010,1 52 0 0,0
15.12.2017 19:00:00 7,0 5,3 5,6 9,1 10,6 17 9 40 22 W 1008,8 14 0 0,2
15.12.2017 18:00:00 7,2 5,5 6,0 9,2 10,6 14 7 37 20 NW 1008,6 20 0 1,0
15.12.2017 17:00:00 7,5 5,6 6,1 9,3 10,6 14 8 19 11 W 1007,7 34 4 0,0
15.12.2017 16:00:00 7,5 5,5 6,7 9,3 10,6 16 9 51 28 NW 1006,9 54 7 0,4
15.12.2017 15:00:00 8,6 5,7 6,5 9,2 10,6 21 11 61 33 WNW 1006,5 58 27 3,0
15.12.2017 14:00:00 10,1 7,9 5,9 9,1 10,6 22 12 65 35 W 1005,9 13 27 1,7
15.12.2017 13:00:00 9,0 6,3 7,4 9,0 10,6 28 15 42 23 WNW 1006,7 2,0 19 2,0
15.12.2017 12:00:00 8,7 6,0 6,6 9,0 10,6 16 9 43 23 WSW 1007,4 20 16 0,4
15.12.2017 11:00:00 8,2 5,1 6,1 8,9 10,6 18 10 26 14 W 1008,2 17 34 0,2
15.12.2017 10:00:00 7,3 5,3 5,4 8,9 10,6 14 8 34 18 WSW 1008,2 40 4 0,2
15.12.2017 09:00:00 6,8 4,9 5,4 9,0 10,6 16 9 37 20 WSW 1007,7 45 0 0,2
15.12.2017 08:00:00 6,7 5,0 5,1 9,2 10,6 18 10 28 15 WSW 1007,4 10 0 0,0
15.12.2017 07:00:00 7,0 4,5 5,0 9,3 10,5 13 7 25 14 W 1007,2 17 0 0,0
15.12.2017 06:00:00 6,6 5,9 5,5 9,4 10,5 7 4 22 12 WNW 1006,8 7 0 0,0
15.12.2017 05:00:00 6,6 5,5 5,4 9,5 10,5 5 3 21 11 WSW 1006,2 20 0 0,0
15.12.2017 04:00:00 7,0 5,8 6,1 9,6 10,5 16 9 29 16 WSW 1006,8 10 0 0,0
15.12.2017 03:00:00 7,5 5,0 6,1 9,7 10,5 22 12 49 26 W 1006,8 10 0 0,2
15.12.2017 02:00:00 7,9 6,8 7,0 9,8 10,5 13 7 39 21 WNW 1007,2 3,8 0 1,4
15.12.2017 01:00:00 8,4 7,2 7,6 9,9 10,5 16 9 50 27 WNW 1007,7 7 0 1,4
15.12.2017 00:00:00 9,6 8,4 8,5 9,9 10,5 15 8 46 25 WNW 1007,0 8 0 0,4
14.12.2017 23:00:00 9,5 8,3 8,6 10,0 10,5 27 15 69 37 W 1007,3 7 0 1,0
14.12.2017 22:00:00 11,0 8,6 9,1 10,0 10,5 23 12 49 27 W 1007,0 11 0 0,6
14.12.2017 21:00:00 11,0 8,7 9,7 10,0 10,5 30 16 50 27 W 1007,3 14 0 0,8
14.12.2017 20:00:00 11,4 9,1 10,1 10,1 10,5 28 15 46 25 W 1007,4 14 0 0,0
14.12.2017 19:00:00 11,1 9,4 9,7 10,1 10,4 25 13 69 37 W 1007,5 16 0 0,4
14.12.2017 18:00:00 11,5 9,1 9,9 10,2 10,5 21 11 44 24 WSW 1007,5 9 0 0,0
14.12.2017 17:00:00 11,7 8,7 10,0 10,2 10,4 36 19 56 30 WSW 1008,8 18 7 1,2
14.12.2017 16:00:00 13,5 7,9 13,2 10,1 10,4 37 20 61 33 WSW 1009,0 10 15 0,0
14.12.2017 15:00:00 13,7 7,5 13,8 10,0 10,4 43 23 67 36 W 1009,6 20 34 0,0
14.12.2017 14:00:00 13,7 8,1 13,9 9,8 10,4 35 19 62 33 W 1010,4 19 11 0,0
14.12.2017 13:00:00 14,4 8,3 13,7 9,6 10,4 37 20 59 32 W 1011,3 18 50 0,0
14.12.2017 12:00:00 13,8 9,0 11,9 9,4 10,4 38 21 58 31 W 1012,1 3,7 34 0,2
14.12.2017 11:00:00 12,7 9,3 12,4 9,3 10,4 22 12 38 21 W 1013,2 10 34 0,0
14.12.2017 10:00:00 11,6 8,3 10,3 9,4 10,4 16 9 26 14 WSW 1012,9 15 42 0,0
14.12.2017 09:00:00 10,6 8,2 9,3 9,4 10,4 16 9 24 13 WSW 1013,7 12 0 0,0
14.12.2017 08:00:00 10,6 8,0 9,4 9,5 10,4 16 9 26 14 WSW 1013,7 10 0 0,0
14.12.2017 07:00:00 10,7 8,3 9,4 9,5 10,4 15 8 22 12 WSW 1013,9 12 0 0,0
14.12.2017 06:00:00 10,9 8,5 9,8 9,6 10,4 15 8 24 13 W 1014,1 12 0 0,0
14.12.2017 05:00:00 10,9 9,3 9,9 9,6 10,4 15 8 21 11 WSW 1014,2 10 0 0,0
14.12.2017 04:00:00 11,1 9,5 10,0 9,6 10,4 16 9 27 15 WSW 1014,5 11 0 0,0
14.12.2017 03:00:00 11,4 10,0 10,3 9,6 10,4 18 10 32 17 W 1014,5 10 0 0,2
14.12.2017 02:00:00 11,3 9,6 10,3 9,6 10,4 18 10 38 21 W 1014,5 19 0 0,0
14.12.2017 01:00:00 11,6 9,8 10,3 9,6 10,4 25 13 53 29 W 1014,7 7 0 0,0
14.12.2017 00:00:00 11,9 10,1 10,8 9,5 10,4 29 16 51 28 WNW 1014,6 7 0 0,0
13.12.2017 23:00:00 12,2 10,1 10,8 9,5 10,4 23 12 40 21 W 1014,3 32 0 0,0
13.12.2017 22:00:00 13,0 10,2 11,9 9,5 10,4 25 13 43 23 W 1013,7 17 0 0,0
13.12.2017 21:00:00 13,4 11,6 12,4 9,3 10,4 28 15 58 32 W 1013,3 14 0 0,0
13.12.2017 20:00:00 13,3 12,4 11,3 9,3 10,4 32 17 67 36 W 1012,8 12 0 0,2
13.12.2017 19:00:00 11,7 11,2 10,5 9,2 10,4 36 20 61 33 WSW 1012,3 2,9 0 0,6
13.12.2017 18:00:00 10,9 10,4 10,3 9,1 10,4 40 22 58 31 SW 1012,6 2,4 0 0,8
13.12.2017 17:00:00 11,1 10,5 10,6 8,9 10,4 31 17 53 29 SW 1013,0 5 0 1,2
13.12.2017 16:00:00 11,9 11,0 11,2 8,8 10,4 37 20 50 27 WSW 1013,5 3,7 0 0,6
13.12.2017 15:00:00 12,0 11,1 11,2 8,5 10,4 26 14 44 24 WSW 1014,1 12 0 0,6
13.12.2017 14:00:00 12,4 11,5 11,4 8,3 10,4 26 14 42 23 SW 1014,9 13 1 0,2
13.12.2017 13:00:00 11,8 10,9 9,6 8,1 10,4 29 16 46 25 WSW 1016,1 14 0 0,0
13.12.2017 12:00:00 9,8 9,3 9,0 7,9 10,4 13 7 29 16 SSW 1017,1 13 0 0,0
13.12.2017 11:00:00 9,1 8,6 7,9 7,9 10,4 18 10 31 17 SW 1017,8 9 0 0,6
13.12.2017 10:00:00 8,2 7,8 6,8 7,8 10,5 16 9 36 20 SW 1018,1 4,2 0 0,6
13.12.2017 09:00:00 7,2 6,6 6,6 7,7 10,5 19 10 34 19 SSW 1018,0 4,5 0 0,0
13.12.2017 08:00:00 7,9 5,4 6,6 7,7 10,5 21 11 33 18 SW 1018,4 45 0 0,0
13.12.2017 07:00:00 7,4 5,9 6,2 7,7 10,5 17 9 27 15 SSW 1018,0 44 0 0,0
13.12.2017 06:00:00 7,0 5,9 5,8 7,7 10,5 15 8 24 13 S 1018,4 41 0 0,0
13.12.2017 05:00:00 6,3 5,7 5,1 7,7 10,5 14 8 23 12 S 1018,8 43 0 0,0
13.12.2017 04:00:00 5,5 5,1 3,8 7,7 10,5 14 8 21 11 S 1019,9 20 0 0,0
13.12.2017 03:00:00 5,1 4,7 3,9 7,8 10,5 14 7 23 12 S 1020,2 20 0 0,0
13.12.2017 02:00:00 4,9 4,3 3,7 7,9 10,5 15 8 26 14 S 1019,8 34 0 0,0
13.12.2017 01:00:00 4,7 4,3 3,7 8,0 10,5 14 8 19 10 S 1020,6 11 0 0,0
13.12.2017 00:00:00 5,5 4,9 4,4 8,1 10,5 11 6 16 9 S 1020,8 12 0 0,0
12.12.2017 23:00:00 5,1 4,7 4,0 8,2 10,5 10 6 17 9 S 1020,8 11 0 0,4
12.12.2017 22:00:00 5,6 5,2 3,5 8,3 10,5 11 6 18 10 SW 1020,7 5 0 0,2
12.12.2017 21:00:00 4,9 4,3 3,3 8,5 10,5 11 6 17 9 SSW 1020,2 20 0 0,0
12.12.2017 20:00:00 5,7 5,0 4,1 8,6 10,5 13 7 19 10 S 1019,2 10 0 0,0
12.12.2017 19:00:00 6,0 5,1 4,5 8,7 10,6 5 3 10 5 SSW 1019,4 24 0 0,0
12.12.2017 18:00:00 7,2 5,7 5,8 8,7 10,5 2 1 25 13 WNW 1018,8 15 0 0,4
12.12.2017 17:00:00 7,4 4,2 6,7 8,7 10,6 11 6 26 14 S 1017,9 60 27 0,0
12.12.2017 16:00:00 9,1 4,7 8,7 8,6 10,5 15 8 31 17 SSW 1017,5 18 29 0,0
12.12.2017 15:00:00 10,4 5,0 13,3 8,3 10,6 11 6 19 10 SSW 1016,8 38 60 0,0
12.12.2017 14:00:00 10,0 4,6 12,5 8,0 10,6 12 6 21 11 SW 1017,1 36 60 0,0
12.12.2017 13:00:00 9,1 4,3 8,5 7,8 10,6 11 6 16 9 S 1017,0 45 60 0,0
12.12.2017 12:00:00 7,6 2,9 8,1 7,6 10,6 8 4 12 6 S 1017,0 34 60 0,0
12.12.2017 11:00:00 6,4 4,6 5,0 7,5 10,5 4 2 11 6 S 1016,9 20 60 0,0
12.12.2017 10:00:00 3,8 3,7 -0,4 7,7 10,6 8 4 10 5 S 1015,3 0,4 60 0,0
12.12.2017 09:00:00 0,6 0,3 -1,6 7,9 10,6 2 1 5 3 S 1014,7 3,0 4 0,0
12.12.2017 08:00:00 0,8 0,5 -1,2 8,1 10,6 3 2 8 4 S 1013,7 0,3 0 0,0
12.12.2017 07:00:00 1,7 1,3 -0,7 8,3 10,6 4 2 5 3 W 1012,4 0,4 0 0,0
12.12.2017 06:00:00 3,0 2,4 1,6 8,4 10,6 5 3 14 8 NNW 1011,3 38 0 0,0
12.12.2017 05:00:00 3,6 3,2 2,7 8,6 10,6 11 6 16 9 NW 1009,7 35 0 0,0
12.12.2017 04:00:00 3,8 3,4 2,6 8,7 10,5 9 5 14 8 NW 1008,3 39 0 0,0
12.12.2017 03:00:00 4,0 3,4 2,6 8,8 10,5 4 2 10 6 W 1007,1 30 0 0,0
12.12.2017 02:00:00 4,8 3,9 3,6 9,0 10,6 9 5 17 9 NNW 1005,8 46 0 0,0
12.12.2017 01:00:00 5,6 4,9 4,9 9,1 10,5 8 4 16 9 N 1004,4 54 0 0,0
12.12.2017 00:00:00 5,7 5,0 5,3 9,1 10,5 10 6 29 16 NW 1003,1 14 0 1,0
11.12.2017 23:00:00 6,3 5,7 5,7 9,2 10,5 8 5 14 7 W 1001,2 10 0 1,4
11.12.2017 22:00:00 6,5 5,6 5,7 9,3 10,5 8 4 21 11 NW 999,1 15 0 0,0

tt = Température de l'air
td = dewpoint
tt 5cm = Température de l'air 5cm
tt -20cm = Température de l'air -20cm
tt -100cm = Température de l'air -100cm
ff = Vitesse du vent
fx = gusts
dd = Direction du vent
ppp = reduced air pressure
vv = visibility
sd = Ensoleillement
rr = Quantités de précipitations

stations d'obs. à proximité